Location: Ammerl�gen
(47.2167°N, 9.6000°E)
Time: 16:18:16
(UTC+00:00)

Cosmos 2058 - Pass Details

Date: 21 April 2021
Orbit: 562 x 583 km, 82.5° (Epoch: 06 May)

Event Time Altitude Azimuth Distance (km) Brightness Sun altitude
Rises 18:54:45 0° 353° (N) 2,809 6.9 -6.4°
Reaches altitude 10° 18:56:59 10° 356° (N) 1,902 6.0 -6.8°
Maximum altitude 19:01:09 64° 79° (E) 643 3.0 -7.4°
Drops below altitude 10° 19:05:15 10° 161° (SSE) 1,873 5.1 -8.0°
Enters shadow 19:07:10 - 164° (SSE) 2,657 5.9 -8.3°
